SCP
0 0 0 0 0 0 0 0 0 0 0 0 0 0 0 0 0 0 0 0 0 0 0 0 0 0 0 0 0 0 0 0 0 0 0 0 0 0 0 0 0 0 0
0 0 0 0 0 0 0 0 0 0 0 0 0 0 0 0 0 0 0 0 0 0 0 0 0 0 0 0 0 0 0 0 0 0 0 0 0 0 0 0 0 0 0
0 0 0 0 0 0 0 0 0 0 0 0 0 0 0 0 0 0 0 0 0 0 0 0 0 0 0 0 0 0 0 0 0 0 0 0 0 0 0 0 0 0 0
0 0 0 0 0 0 0 0 0 0 0 0 0 0 0 0 0 0 0 0 0 0 0 0 0 0 0 0 0 0 0 0 0 0 0 0 0 0 0 0 0 0 0
0 0 0 0 0 0 0 0 0 0 0 0 0 0 0 0 0 0 0 0 0 0 0 0 0 0 0 0 0 0 0 0 0 0 0 0 0 0 0 0 0 0 0
0 0 0 0 0 0 0 0 0 0 0 0 0 0 0 0 0 0 0 0 0 0 0 0 0 0 0 0 0 0 0 0 0 0 0 0 0 0 0 0 0 0 0
0 0 0 0 0 0 0 0 0 0 0 0 0 0 0 0 0 0 0 0 0 0 0 0 0 0 0 0 0 0 0 0 0 0 0 0 0 0 0 0 0 0 0
0 0 0 0 0 0 0 0 0 0 0 0 0 0 0 0 0 0 0 0 0 0 0 0 0 0 0 0 0 0 0 0 0 0 0 0 0 0 0 0 0 0 0
0 0 0 0 0 0 0 0 0 0 0 0 0 0 0 0 0 0 0 0 0 0 0 0 0 0 0 0 0 0 0 0 0 0 0 0 0 0 0 0 0 0 0
0 0 0 0 0 0 0 0 0 0 0 0 0 0 0 0 0 0 0 0 0 0 0 0 0 0 0 0 0 0 0 0 0 0 0 0 0 0 0 0 0 0 0
0 0 0 0 0 0 0 0 0 0 0 0 0 0 0 0 0 0 0 0 0 0 -0 0 0 0 0 0 0 0 0 0 0 0 0 0 0 0 0 0 0 0 0
0 0 0 0 0 0 0 0 0 0 0 0 0 0 0 0 0 0 0 0 0 -0 0 -0 -0 -0 -0 0 0 0 0 0 0 0 0 0 0 0 0 0 0 0 0
0 0 0 0 0 0 0 0 0 0 0 0 0 0 0 0 0 0 0 0 -0 -0 -0 -0 -0 -0 -0 -0 0 0 0 0 0 0 0 0 0 0 0 0 0 0 0
0 0 0 0 0 0 0 0 0 0 0 0 0 0 0 0 0 0 0 0 0 -0 -0 0 -0 -0 -0 0 -0 0 0 0 0 0 0 0 0 0 0 0 0 0 0
0 0 0 0 0 0 0 0 0 0 0 0 0 0 0 0 0 0 0 0 0 -0 0 -0 -0 0 0 0 0 -0 -0 -0 0 0 0 0 0 0 0 0 0 0 0
0 0 0 0 0 0 0 0 0 0 0 0 0 0 0 0 0 0 0 0 0 0 0 0 0 0 0 0 0 -0 -0 -0 0 0 0 0 0 0 0 0 0 0 0
0 0 0 0 0 0 0 0 0 0 0 0 0 0 0 0 0 0 0 0 0 0 0 0 0 0 0 0 0 0 0 -0 -0 -0 0 0 0 0 0 0 0 0 0
0 0 0 0 0 0 0 0 0 0 0 0 0 0 0 0 0 0 0 0 0 0 0 0 0 0 0 0 0 0 0 0 -0 -0 -0 0 0 0 0 0 0 0 0
0 0 0 0 0 0 0 0 0 0 0 0 0 0 0 0 0 0 0 0 0 0 0 0 0 0 0 0 0 0 0 0 0 0 0 0 0 0 0 0 0 0 0
0 0 0 0 0 0 0 0 0 0 0 0 0 0 0 0 0 0 0 0 0 0 0 0 0 0 0 0 0 0 0 0 0 0 0 0 0 0 0 0 0 0 0
0 0 0 0 0 0 0 0 0 0 0 0 0 0 0 0 0 0 0 0 0 0 0 0 0 0 0 0 0 0 0 0 0 0 0 0 -0 0 0 0 0 0 0
0 0 0 0 0 0 0 0 0 0 0 0 0 0 0 0 0 0 0 0 0 0 0 0 0 0 0 0 0 0 0 0 -0 0 0 0 0 0 -0 0 0 0 0
0 0 0 0 0 0 0 0 0 0 0 0 0 0 0 0 0 0 0 0 0 0 0 0 0 0 0 0 0 0 0 0 0 0 0 0 0 0 0 0 0 0 0
0 0 0 0 0 0 0 0 0 0 0 0 0 0 0 0 0 0 0 0 0 0 0 0 0 0 0 0 0 0 0 0 0 0 0 0 0 0 0 0 0 0 0
0 0 0 0 0 0 0 0 0 0 0 0 0 0 0 0 0 0 0 0 0 0 0 0 0 0 0 0 0 0 0 0 0 0 0 0 0 0 0 0 0 0 0
0 0 0 0 0 0 0 0 0 0 0 0 0 0 0 0 0 0 0 0 0 0 0 0 0 0 0 0 0 0 0 0 0 0 0 0 0 0 0 -0 -0 -0 0
Wind_Speed_500mb
17 14 15 18 20 19 24 24 27 25 27 29 31 33 30 27 25 26 29 29 30 27 25 24 22 21 23 21 20 21 21 22 24 21 18 21 24 26 28 35 39 41 42
26 30 30 25 25 26 28 26 23 26 23 28 30 34 37 41 37 34 31 31 30 33 35 34 32 29 26 26 21 18 22 21 29 31 28 23 26 27 29 33 37 43 47
11 17 17 15 24 24 28 22 30 29 32 30 34 36 32 32 35 37 37 38 40 40 38 38 37 37 36 33 26 23 22 19 22 41 37 40 32 26 28 34 37 36 40
7 11 15 11 10 12 16 20 24 26 30 33 37 37 37 39 36 34 35 35 38 39 43 44 42 43 40 38 37 34 32 25 23 29 38 42 46 38 30 30 32 35 37
4 6 6 9 12 15 17 18 20 22 24 27 28 28 27 27 27 29 31 34 36 36 38 42 43 45 44 43 41 38 38 34 30 20 37 44 46 51 44 39 36 31 34
5 8 8 8 10 14 16 19 21 24 26 30 31 30 29 29 27 28 25 26 28 29 29 29 31 32 35 39 44 45 43 39 37 42 39 34 47 44 47 42 39 43 40
5 4 6 8 10 12 14 16 18 21 28 31 28 26 19 22 16 17 21 19 26 28 32 35 39 39 39 37 35 39 46 47 45 43 51 39 34 43 42 46 48 48 47
12 11 11 10 10 13 15 17 19 20 25 31 32 19 11 10 14 32 17 19 20 28 31 39 44 46 47 47 45 41 38 41 47 50 49 54 53 42 39 50 51 50 45
10 9 10 12 14 15 18 21 23 25 27 29 32 25 13 11 44 6 25 21 43 41 46 45 42 44 46 44 45 48 45 46 46 48 52 54 59 61 55 41 50 55 54
8 9 11 13 15 18 19 22 25 26 28 30 28 28 18 18 15 28 32 37 34 62 63 57 47 60 46 51 44 41 47 52 52 52 52 54 57 62 65 66 46 49 54
8 10 11 14 18 21 23 25 26 29 31 32 33 34 32 32 12 35 47 67 67 66 59 68 78 59 55 52 47 52 45 43 49 56 56 57 58 58 61 67 73 62 51
8 11 16 20 23 25 27 30 32 33 34 33 32 33 33 32 35 35 46 59 66 76 74 74 60 69 65 57 57 48 48 49 48 51 56 63 61 62 61 61 69 74 77
8 11 13 16 20 24 27 30 33 35 35 35 36 35 36 36 38 42 50 61 68 81 78 74 64 48 65 58 49 67 58 60 71 66 62 57 61 68 66 66 65 69 75
3 7 11 14 18 21 24 26 28 30 32 33 36 40 43 46 48 49 50 57 75 63 75 75 73 67 48 63 68 85 87 85 82 77 72 67 63 59 66 72 71 70 71
7 8 10 12 16 20 24 27 30 31 31 33 35 38 44 47 51 54 53 51 49 53 79 72 63 77 83 85 89 90 90 88 84 81 78 76 72 68 64 62 73 76 74
9 9 11 15 18 22 25 27 29 32 33 34 37 40 44 48 51 54 56 56 54 55 62 84 91 90 91 91 88 92 96 92 88 82 80 77 77 75 74 70 65 69 79
10 9 13 18 22 26 28 31 33 35 36 39 41 45 48 53 56 59 60 60 60 59 66 99 89 85 90 94 96 89 89 94 97 89 81 80 78 79 79 78 74 69 68
11 10 14 20 25 30 35 36 37 39 42 45 48 50 53 56 59 62 63 65 67 66 64 85 97 89 78 89 89 88 88 85 86 77 76 72 78 80 79 80 80 78 73
14 12 17 23 29 35 39 42 44 43 45 46 49 52 55 59 63 65 67 71 73 71 71 69 99 81 79 70 79 82 80 80 70 51 48 50 50 57 67 73 81 81 79
20 19 21 26 30 37 42 44 45 46 48 49 51 54 56 59 63 67 70 71 70 72 74 70 81 86 75 68 60 68 78 73 81 76 74 62 62 66 63 60 64 71 78
29 27 28 29 33 38 43 45 49 50 51 51 53 55 58 62 66 68 68 70 69 69 66 69 75 76 72 70 62 68 72 78 77 69 73 68 62 58 64 63 56 47 38
39 38 36 36 36 38 44 47 51 52 54 55 56 57 59 63 64 66 65 59 49 57 65 70 74 76 79 76 72 68 64 71 79 64 65 82 71 72 73 72 81 82 70
50 47 44 44 44 42 45 48 53 57 58 57 57 59 61 61 64 63 64 59 58 56 56 66 76 77 79 79 76 74 72 73 77 87 81 88 77 76 65 63 59 58 60
58 55 53 51 50 48 46 49 55 59 60 59 59 59 60 62 62 61 63 69 71 73 75 74 80 87 87 85 83 88 91 89 86 77 67 81 76 80 75 73 60 59 61
63 61 58 56 53 51 50 54 58 61 61 59 59 58 58 62 61 48 57 67 74 77 69 60 59 73 80 79 72 76 77 79 80 81 69 66 77 74 68 70 80 47 43
64 63 61 58 56 54 53 56 59 61 61 60 59 56 55 45 45 49 54 67 79 82 80 75 77 75 67 65 53 58 67 71 76 76 50 44 69 71 76 62 13 19 54
Wind_Direction_500mb
266 263 263 269 265 275 288 288 303 310 316 320 323 328 327 320 312 304 299 296 295 292 290 289 289 291 290 292 302 309 309 314 309 308 297 295 290 279 267 254 249 247 246
256 267 275 271 271 273 277 276 287 301 301 311 311 315 318 318 320 318 316 310 301 298 294 291 290 286 283 287 288 293 301 298 309 309 309 306 301 286 277 268 257 251 250
281 286 286 288 291 290 276 292 288 297 299 300 303 305 301 302 304 312 316 317 318 314 307 298 292 287 285 281 275 266 268 272 289 292 299 305 322 299 276 275 271 268 263
292 297 303 318 311 326 321 308 301 301 302 300 300 300 298 298 297 296 298 303 305 308 311 305 299 290 284 282 279 273 265 269 266 274 289 295 306 306 309 290 276 274 276
296 317 318 311 313 326 324 323 326 322 319 314 315 313 310 309 304 300 298 296 297 301 304 303 301 291 287 282 278 275 274 272 256 253 280 283 292 305 302 307 290 280 283
299 304 320 322 314 314 318 323 324 324 318 314 315 316 312 303 300 299 301 307 306 308 313 312 308 301 296 289 283 278 273 268 261 251 253 273 287 291 296 306 312 313 285
101 62 30 358 339 328 331 324 325 323 320 326 322 310 345 322 324 332 338 317 316 318 316 312 310 307 303 301 298 289 279 274 269 261 252 251 266 280 286 288 297 302 301
79 68 51 38 29 21 16 12 7 1 355 354 359 1 342 304 300 330 307 336 335 315 319 323 320 313 308 299 293 291 290 283 273 268 263 254 251 254 272 279 286 291 294
77 56 46 31 20 13 10 10 8 9 9 9 11 24 353 333 327 254 329 319 317 315 322 327 325 334 325 318 304 288 282 277 277 274 268 264 259 258 257 260 271 282 288
73 49 34 25 16 12 9 10 8 9 6 6 3 13 7 341 327 319 295 333 310 322 324 324 320 325 324 325 321 311 291 278 275 273 272 270 266 262 257 252 253 265 280
66 41 30 27 18 14 11 9 6 7 6 4 2 357 350 347 322 311 314 315 320 321 327 318 320 320 319 317 314 313 309 301 289 279 275 270 267 267 262 257 253 250 259
63 36 21 11 7 2 358 356 356 357 356 356 358 355 353 349 328 321 310 313 315 319 315 319 320 320 319 310 309 300 305 304 313 306 290 279 273 267 264 261 257 255 250
35 16 359 355 347 345 341 342 343 343 344 345 347 348 346 341 333 326 319 317 315 318 320 318 317 310 311 307 295 300 300 293 300 302 298 294 284 275 269 264 261 258 255
312 321 320 326 325 327 325 323 323 325 329 332 336 338 339 338 336 332 325 322 320 316 318 314 317 317 288 295 298 301 299 298 297 295 292 290 290 287 278 270 265 261 258
257 275 289 306 314 315 321 322 323 322 324 328 330 333 333 333 332 330 327 322 314 308 311 312 312 308 305 303 302 301 300 299 296 294 291 288 285 284 283 280 269 264 261
250 268 299 318 324 323 318 316 316 317 321 323 325 327 328 328 327 326 323 318 311 301 292 305 308 306 306 303 301 302 302 300 297 293 291 288 284 281 278 277 277 270 262
255 299 319 323 325 321 319 318 316 316 319 320 325 326 327 326 327 324 321 317 312 304 293 303 301 304 303 303 303 300 298 299 301 297 290 286 283 281 277 274 272 272 269
266 297 317 325 326 327 323 319 316 315 319 322 325 324 324 323 323 321 319 316 312 308 301 298 302 304 303 305 303 303 301 297 299 301 304 293 283 279 277 275 271 268 267
261 293 315 320 325 323 321 318 315 313 314 315 318 319 321 321 322 320 318 316 312 309 306 300 301 303 303 304 305 304 302 300 302 301 300 292 284 285 281 275 272 269 265
257 280 296 308 315 318 315 313 310 310 309 312 315 317 318 317 317 317 315 313 311 307 305 301 300 302 306 310 307 304 305 300 299 298 290 294 289 285 294 293 283 277 269
262 273 284 294 304 310 310 312 309 308 306 308 311 312 314 315 316 316 316 313 309 308 308 306 304 304 304 308 307 305 302 304 306 308 306 304 305 286 277 270 267 266 274
262 268 276 285 292 300 309 309 306 305 304 305 308 310 312 314 314 313 313 309 303 305 303 299 301 299 302 302 303 302 302 304 304 312 310 308 309 302 292 282 274 269 269
262 269 275 280 284 294 303 307 305 304 303 303 306 309 310 311 312 313 311 309 312 307 297 296 292 294 297 302 301 298 298 296 296 306 307 303 308 304 304 295 285 285 284
267 270 272 276 281 291 300 304 304 301 300 302 305 307 309 312 313 311 318 318 313 310 310 306 298 296 297 300 297 297 297 297 297 297 298 294 299 297 299 296 294 292 288
268 269 272 275 278 288 298 301 301 300 300 302 304 306 309 311 316 313 309 306 307 303 301 296 290 290 290 288 289 289 289 291 291 290 293 291 295 299 302 296 300 305 293
266 268 271 274 278 286 294 297 298 296 299 302 302 303 307 302 304 309 305 302 300 300 306 304 297 296 295 294 292 284 288 286 288 291 299 290 293 299 302 305 344 284 295
Wind_Speed_850mb
17 14 15 18 20 19 24 24 27 25 27 29 31 33 30 27 25 26 29 29 30 27 25 24 22 21 23 21 20 21 21 22 24 21 18 21 24 26 28 35 39 41 42
26 30 30 25 25 26 28 26 23 26 23 28 30 34 37 41 37 34 31 31 30 33 35 34 32 29 26 26 21 18 22 21 29 31 28 23 26 27 29 33 37 43 47
11 17 17 15 24 24 28 22 30 29 32 30 34 36 32 32 35 37 37 38 40 40 38 38 37 37 36 33 26 23 22 19 22 41 37 40 32 26 28 34 37 36 40
7 11 15 11 10 12 16 20 24 26 30 33 37 37 37 39 36 34 35 35 38 39 43 44 42 43 40 38 37 34 32 25 23 29 38 42 46 38 30 30 32 35 37
4 6 6 9 12 15 17 18 20 22 24 27 28 28 27 27 27 29 31 34 36 36 38 42 43 45 44 43 41 38 38 34 30 20 37 44 46 51 44 39 36 31 34
5 8 8 8 10 14 16 19 21 24 26 30 31 30 29 29 27 28 25 26 28 29 29 29 31 32 35 39 44 45 43 39 37 42 39 34 47 44 47 42 39 43 40
5 4 6 8 10 12 14 16 18 21 28 31 28 26 19 22 16 17 21 19 26 28 32 35 39 39 39 37 35 39 46 47 45 43 51 39 34 43 42 46 48 48 47
12 11 11 10 10 13 15 17 19 20 25 31 32 19 11 10 14 32 17 19 20 28 31 39 44 46 47 47 45 41 38 41 47 50 49 54 53 42 39 50 51 50 45
10 9 10 12 14 15 18 21 23 25 27 29 32 25 13 11 44 6 25 21 43 41 46 45 42 44 46 44 45 48 45 46 46 48 52 54 59 61 55 41 50 55 54
8 9 11 13 15 18 19 22 25 26 28 30 28 28 18 18 15 28 32 37 34 62 63 57 47 60 46 51 44 41 47 52 52 52 52 54 57 62 65 66 46 49 54
8 10 11 14 18 21 23 25 26 29 31 32 33 34 32 32 12 35 47 67 67 66 59 68 78 59 55 52 47 52 45 43 49 56 56 57 58 58 61 67 73 62 51
8 11 16 20 23 25 27 30 32 33 34 33 32 33 33 32 35 35 46 59 66 76 74 74 60 69 65 57 57 48 48 49 48 51 56 63 61 62 61 61 69 74 77
8 11 13 16 20 24 27 30 33 35 35 35 36 35 36 36 38 42 50 61 68 81 78 74 64 48 65 58 49 67 58 60 71 66 62 57 61 68 66 66 65 69 75
3 7 11 14 18 21 24 26 28 30 32 33 36 40 43 46 48 49 50 57 75 63 75 75 73 67 48 63 68 85 87 85 82 77 72 67 63 59 66 72 71 70 71
7 8 10 12 16 20 24 27 30 31 31 33 35 38 44 47 51 54 53 51 49 53 79 72 63 77 83 85 89 90 90 88 84 81 78 76 72 68 64 62 73 76 74
9 9 11 15 18 22 25 27 29 32 33 34 37 40 44 48 51 54 56 56 54 55 62 84 91 90 91 91 88 92 96 92 88 82 80 77 77 75 74 70 65 69 79
10 9 13 18 22 26 28 31 33 35 36 39 41 45 48 53 56 59 60 60 60 59 66 99 89 85 90 94 96 89 89 94 97 89 81 80 78 79 79 78 74 69 68
11 10 14 20 25 30 35 36 37 39 42 45 48 50 53 56 59 62 63 65 67 66 64 85 97 89 78 89 89 88 88 85 86 77 76 72 78 80 79 80 80 78 73
14 12 17 23 29 35 39 42 44 43 45 46 49 52 55 59 63 65 67 71 73 71 71 69 99 81 79 70 79 82 80 80 70 51 48 50 50 57 67 73 81 81 79
20 19 21 26 30 37 42 44 45 46 48 49 51 54 56 59 63 67 70 71 70 72 74 70 81 86 75 68 60 68 78 73 81 76 74 62 62 66 63 60 64 71 78
29 27 28 29 33 38 43 45 49 50 51 51 53 55 58 62 66 68 68 70 69 69 66 69 75 76 72 70 62 68 72 78 77 69 73 68 62 58 64 63 56 47 38
39 38 36 36 36 38 44 47 51 52 54 55 56 57 59 63 64 66 65 59 49 57 65 70 74 76 79 76 72 68 64 71 79 64 65 82 71 72 73 72 81 82 70
50 47 44 44 44 42 45 48 53 57 58 57 57 59 61 61 64 63 64 59 58 56 56 66 76 77 79 79 76 74 72 73 77 87 81 88 77 76 65 63 59 58 60
58 55 53 51 50 48 46 49 55 59 60 59 59 59 60 62 62 61 63 69 71 73 75 74 80 87 87 85 83 88 91 89 86 77 67 81 76 80 75 73 60 59 61
63 61 58 56 53 51 50 54 58 61 61 59 59 58 58 62 61 48 57 67 74 77 69 60 59 73 80 79 72 76 77 79 80 81 69 66 77 74 68 70 80 47 43
64 63 61 58 56 54 53 56 59 61 61 60 59 56 55 45 45 49 54 67 79 82 80 75 77 75 67 65 53 58 67 71 76 76 50 44 69 71 76 62 13 19 54
Wind_Direction_850mb
266 263 263 269 265 275 288 288 303 310 316 320 323 328 327 320 312 304 299 296 295 292 290 289 289 291 290 292 302 309 309 314 309 308 297 295 290 279 267 254 249 247 246
256 267 275 271 271 273 277 276 287 301 301 311 311 315 318 318 320 318 316 310 301 298 294 291 290 286 283 287 288 293 301 298 309 309 309 306 301 286 277 268 257 251 250
281 286 286 288 291 290 276 292 288 297 299 300 303 305 301 302 304 312 316 317 318 314 307 298 292 287 285 281 275 266 268 272 289 292 299 305 322 299 276 275 271 268 263
292 297 303 318 311 326 321 308 301 301 302 300 300 300 298 298 297 296 298 303 305 308 311 305 299 290 284 282 279 273 265 269 266 274 289 295 306 306 309 290 276 274 276
296 317 318 311 313 326 324 323 326 322 319 314 315 313 310 309 304 300 298 296 297 301 304 303 301 291 287 282 278 275 274 272 256 253 280 283 292 305 302 307 290 280 283
299 304 320 322 314 314 318 323 324 324 318 314 315 316 312 303 300 299 301 307 306 308 313 312 308 301 296 289 283 278 273 268 261 251 253 273 287 291 296 306 312 313 285
101 62 30 358 339 328 331 324 325 323 320 326 322 310 345 322 324 332 338 317 316 318 316 312 310 307 303 301 298 289 279 274 269 261 252 251 266 280 286 288 297 302 301
79 68 51 38 29 21 16 12 7 1 355 354 359 1 342 304 300 330 307 336 335 315 319 323 320 313 308 299 293 291 290 283 273 268 263 254 251 254 272 279 286 291 294
77 56 46 31 20 13 10 10 8 9 9 9 11 24 353 333 327 254 329 319 317 315 322 327 325 334 325 318 304 288 282 277 277 274 268 264 259 258 257 260 271 282 288
73 49 34 25 16 12 9 10 8 9 6 6 3 13 7 341 327 319 295 333 310 322 324 324 320 325 324 325 321 311 291 278 275 273 272 270 266 262 257 252 253 265 280
66 41 30 27 18 14 11 9 6 7 6 4 2 357 350 347 322 311 314 315 320 321 327 318 320 320 319 317 314 313 309 301 289 279 275 270 267 267 262 257 253 250 259
63 36 21 11 7 2 358 356 356 357 356 356 358 355 353 349 328 321 310 313 315 319 315 319 320 320 319 310 309 300 305 304 313 306 290 279 273 267 264 261 257 255 250
35 16 359 355 347 345 341 342 343 343 344 345 347 348 346 341 333 326 319 317 315 318 320 318 317 310 311 307 295 300 300 293 300 302 298 294 284 275 269 264 261 258 255
312 321 320 326 325 327 325 323 323 325 329 332 336 338 339 338 336 332 325 322 320 316 318 314 317 317 288 295 298 301 299 298 297 295 292 290 290 287 278 270 265 261 258
257 275 289 306 314 315 321 322 323 322 324 328 330 333 333 333 332 330 327 322 314 308 311 312 312 308 305 303 302 301 300 299 296 294 291 288 285 284 283 280 269 264 261
250 268 299 318 324 323 318 316 316 317 321 323 325 327 328 328 327 326 323 318 311 301 292 305 308 306 306 303 301 302 302 300 297 293 291 288 284 281 278 277 277 270 262
255 299 319 323 325 321 319 318 316 316 319 320 325 326 327 326 327 324 321 317 312 304 293 303 301 304 303 303 303 300 298 299 301 297 290 286 283 281 277 274 272 272 269
266 297 317 325 326 327 323 319 316 315 319 322 325 324 324 323 323 321 319 316 312 308 301 298 302 304 303 305 303 303 301 297 299 301 304 293 283 279 277 275 271 268 267
261 293 315 320 325 323 321 318 315 313 314 315 318 319 321 321 322 320 318 316 312 309 306 300 301 303 303 304 305 304 302 300 302 301 300 292 284 285 281 275 272 269 265
257 280 296 308 315 318 315 313 310 310 309 312 315 317 318 317 317 317 315 313 311 307 305 301 300 302 306 310 307 304 305 300 299 298 290 294 289 285 294 293 283 277 269
262 273 284 294 304 310 310 312 309 308 306 308 311 312 314 315 316 316 316 313 309 308 308 306 304 304 304 308 307 305 302 304 306 308 306 304 305 286 277 270 267 266 274
262 268 276 285 292 300 309 309 306 305 304 305 308 310 312 314 314 313 313 309 303 305 303 299 301 299 302 302 303 302 302 304 304 312 310 308 309 302 292 282 274 269 269
262 269 275 280 284 294 303 307 305 304 303 303 306 309 310 311 312 313 311 309 312 307 297 296 292 294 297 302 301 298 298 296 296 306 307 303 308 304 304 295 285 285 284
267 270 272 276 281 291 300 304 304 301 300 302 305 307 309 312 313 311 318 318 313 310 310 306 298 296 297 300 297 297 297 297 297 297 298 294 299 297 299 296 294 292 288
268 269 272 275 278 288 298 301 301 300 300 302 304 306 309 311 316 313 309 306 307 303 301 296 290 290 290 288 289 289 289 291 291 290 293 291 295 299 302 296 300 305 293
266 268 271 274 278 286 294 297 298 296 299 302 302 303 307 302 304 309 305 302 300 300 306 304 297 296 295 294 292 284 288 286 288 291 299 290 293 299 302 305 344 284 295